Date String (YYYY-MM-DD hh:mm:ss) UTC,Instrument flags,Ambient pressure (hPa),Sample flow (lpm),Bypass flow (lpm),Sample temperature (°C),Ambient temperature (°C),ASC tube jacket temperature (°C),LED temperature (°C),Box temperature (°C),Sample RH (%),Span deviation,Mass concentration (μg/m³),Mass concentration (μg/m³),Mass concentration (μg/m³)
DateTimeUTC,F1_M11,P_M11,Q1_M11,Q2_M11,T1_M11,T2_M11,T3_M11,T4_M11,T5_M11,U1_M11,ZSPAN_M11,X0_M11,X2_M11,X1_M11
2022-04-13 06:00:00,,0817.3,5.00,0.00,21.9,21.0,00.0,31.1,23.4,07.2,0000.0,0004.11,0001.44,0000.59
2022-04-13 06:01:00,,0817.3,5.00,0.00,21.8,20.9,00.0,31.0,23.4,07.3,0000.0,0004.33,0001.42,0000.61
2022-04-13 06:02:00,,0817.4,5.01,0.00,21.8,20.8,00.0,31.0,23.3,07.4,0000.0,0005.29,0001.43,0000.62
2022-04-13 06:03:00,,0817.4,5.01,0.00,21.7,20.8,00.0,31.0,23.3,07.5,0000.0,0005.08,0001.43,0000.62
2022-04-13 06:04:00,,0817.2,4.99,0.00,21.7,20.7,00.0,30.9,23.3,07.5,0000.0,0004.92,0001.40,0000.62
2022-04-13 06:05:00,,0817.2,5.00,0.00,21.6,20.6,00.0,30.9,23.2,07.6,0000.0,0004.91,0001.37,0000.61
2022-04-13 06:06:00,,0816.9,5.00,0.00,21.7,21.1,00.0,30.9,23.3,07.6,0000.0,0005.10,0001.45,0000.62
2022-04-13 06:07:00,,0816.9,4.99,0.00,21.8,22.1,00.0,30.9,23.6,07.6,0000.0,0004.67,0001.50,0000.62
2022-04-13 06:08:00,,0817.0,5.01,0.00,22.0,23.0,00.0,31.0,24.0,07.6,0000.0,0005.16,0001.59,0000.62
2022-04-13 06:09:00,,0817.1,4.98,0.00,22.1,23.2,00.0,31.0,24.1,07.5,0000.0,0005.65,0001.60,0000.61
2022-04-13 06:10:00,,0817.0,5.00,0.00,22.1,22.8,00.0,31.0,23.9,07.6,0000.0,0006.21,0001.61,0000.61
2022-04-13 06:11:00,,0817.0,5.01,0.00,22.0,22.3,00.0,31.0,23.7,07.6,0000.0,0006.81,0001.59,0000.62
2022-04-13 06:12:00,,0817.4,5.00,0.00,21.9,21.9,00.0,31.0,23.6,07.5,0000.0,0006.67,0001.57,0000.60
2022-04-13 06:13:00,,0817.2,5.00,0.00,21.9,21.6,00.0,31.0,23.5,07.2,0000.0,0006.03,0001.53,0000.60
2022-04-13 06:14:00,,0817.2,5.00,0.00,21.8,21.3,00.0,30.9,23.5,07.0,0000.0,0006.01,0001.52,0000.61
2022-04-13 06:15:00,,0816.9,5.00,0.00,21.8,21.2,00.0,30.9,23.4,07.1,0000.0,0005.93,0001.52,0000.61
2022-04-13 06:16:00,,0816.9,5.00,0.00,21.7,21.0,00.0,30.9,23.3,07.3,0000.0,0006.05,0001.52,0000.62
2022-04-13 06:17:00,,0817.1,4.99,0.00,21.6,20.8,00.0,30.9,23.1,07.6,0000.0,0005.83,0001.46,0000.61
2022-04-13 06:18:00,,0816.9,4.99,0.00,21.6,20.6,00.0,30.8,23.1,07.7,0000.0,0005.76,0001.40,0000.61
2022-04-13 06:19:00,,0817.0,5.00,0.00,21.5,20.6,00.0,30.8,23.1,07.7,0000.0,0005.29,0001.31,0000.60
2022-04-13 06:20:00,,0817.0,5.00,0.00,21.5,20.5,00.0,30.8,23.0,07.6,0000.0,0004.69,0001.27,0000.61
2022-04-13 06:21:00,,0817.0,5.01,0.00,21.5,20.7,00.0,30.7,23.1,07.7,0000.0,0004.44,0001.35,0000.61
2022-04-13 06:22:00,,0816.9,5.00,0.00,21.6,21.6,00.0,30.8,23.3,07.6,0000.0,0003.77,0001.37,0000.61
2022-04-13 06:23:00,,0817.0,5.01,0.00,21.8,22.6,00.0,30.8,23.7,07.6,0000.0,0003.65,0001.36,0000.61
2022-04-13 06:24:00,,0817.0,4.99,0.00,21.9,22.9,00.0,30.8,23.9,07.6,0000.0,0003.58,0001.41,0000.60
2022-04-13 06:25:00,,0817.0,5.00,0.00,22.0,22.6,00.0,30.9,23.9,07.6,0000.0,0004.36,0001.43,0000.60
2022-04-13 06:26:00,,0817.0,5.00,0.00,22.0,22.3,00.0,30.9,23.8,07.6,0000.0,0004.91,0001.50,0000.61
2022-04-13 06:27:00,,0817.0,5.01,0.00,22.0,22.1,00.0,30.9,23.8,07.5,0000.0,0004.79,0001.51,0000.62
2022-04-13 06:28:00,,0817.0,5.01,0.00,22.0,21.8,00.0,30.9,23.7,07.4,0000.0,0004.64,0001.51,0000.62
2022-04-13 06:29:00,,0817.0,4.98,0.00,22.0,21.6,00.0,30.9,23.7,07.4,0000.0,0004.69,0001.52,0000.63
2022-04-13 06:30:00,,0817.0,5.00,0.00,21.9,21.4,00.0,30.9,23.5,07.3,0000.0,0004.78,0001.55,0000.63
2022-04-13 06:31:00,,0817.0,5.00,0.00,21.8,21.2,00.0,30.9,23.4,07.3,0000.0,0004.87,0001.55,0000.62
2022-04-13 06:32:00,,0817.0,5.00,0.00,21.7,21.0,00.0,30.9,23.3,07.3,0000.0,0004.78,0001.51,0000.62
2022-04-13 06:33:00,,0817.0,5.00,0.00,21.7,20.8,00.0,30.8,23.2,07.4,0000.0,0004.88,0001.46,0000.62
2022-04-13 06:34:00,,0817.0,5.02,0.00,21.6,20.7,00.0,30.8,23.2,07.5,0000.0,0006.79,0001.45,0000.63
2022-04-13 06:35:00,,0817.0,5.00,0.00,21.6,20.6,00.0,30.8,23.1,07.4,0000.0,0006.69,0001.40,0000.64
2022-04-13 06:36:00,,0817.0,5.00,0.00,21.5,20.5,00.0,30.7,23.0,07.4,0000.0,0005.99,0001.40,0000.65
2022-04-13 06:37:00,,0817.0,4.99,0.00,21.4,20.4,00.0,30.7,22.9,07.5,0000.0,0005.68,0001.40,0000.65
2022-04-13 06:38:00,,0817.0,5.00,0.00,21.4,20.9,00.0,30.7,23.1,07.5,0000.0,0005.90,0001.43,0000.65
2022-04-13 06:39:00,,0817.0,4.99,0.00,21.6,22.0,00.0,30.7,23.4,07.4,0000.0,0005.94,0001.44,0000.64
2022-04-13 06:40:00,,0817.0,5.01,0.00,21.8,22.9,00.0,30.8,23.8,07.4,0000.0,0006.95,0001.40,0000.63
2022-04-13 06:41:00,,0817.0,5.00,0.00,21.9,23.1,00.0,30.8,23.9,07.3,0000.0,0007.30,0001.38,0000.62
2022-04-13 06:42:00,,0816.9,5.00,0.00,21.9,22.7,00.0,30.8,23.8,07.3,0000.0,0007.64,0001.43,0000.63
2022-04-13 06:43:00,,0817.0,4.99,0.00,21.9,22.2,00.0,30.8,23.6,07.2,0000.0,0007.87,0001.44,0000.61
2022-04-13 06:44:00,,0817.4,5.01,0.00,21.8,21.8,00.0,30.8,23.4,07.2,0000.0,0007.82,0001.45,0000.61
2022-04-13 06:45:00,,0817.3,5.00,0.00,21.7,21.5,00.0,30.8,23.3,07.2,0000.0,0006.33,0001.45,0000.61
2022-04-13 06:46:00,,0817.3,5.00,0.00,21.7,21.2,00.0,30.8,23.2,07.2,0000.0,0006.20,0001.48,0000.61
2022-04-13 06:47:00,,0817.1,5.00,0.00,21.6,21.0,00.0,30.8,23.2,07.2,0000.0,0006.22,0001.47,0000.61
2022-04-13 06:48:00,,0816.9,4.99,0.00,21.6,20.8,00.0,30.7,23.1,07.2,0000.0,0006.47,0001.46,0000.60
2022-04-13 06:49:00,,0817.0,4.99,0.00,21.5,20.7,00.0,30.7,23.0,07.3,0000.0,0006.33,0001.43,0000.60
2022-04-13 06:50:00,,0817.0,5.00,0.00,21.4,20.5,00.0,30.7,22.9,07.3,0000.0,0006.30,0001.41,0000.59
2022-04-13 06:51:00,,0817.0,5.00,0.00,21.4,20.5,00.0,30.6,22.9,07.4,0000.0,0005.57,0001.45,0000.60
2022-04-13 06:52:00,,0817.1,4.99,0.00,21.4,20.4,00.0,30.6,22.9,07.4,0000.0,0005.87,0001.45,0000.61
2022-04-13 06:53:00,,0817.1,5.00,0.00,21.4,20.5,00.0,30.6,23.0,07.4,0000.0,0005.88,0001.42,0000.62
2022-04-13 06:54:00,,0817.1,5.00,0.00,21.4,21.1,00.0,30.6,23.2,07.4,0000.0,0006.03,0001.42,0000.64
2022-04-13 06:55:00,,0817.2,5.00,0.00,21.6,22.2,00.0,30.7,23.5,07.2,0000.0,0006.02,0001.43,0000.64
2022-04-13 06:56:00,,0817.1,4.98,0.00,21.8,23.0,00.0,30.7,23.8,07.2,0000.0,0006.07,0001.45,0000.63
2022-04-13 06:57:00,,0817.1,5.01,0.00,21.9,22.7,00.0,30.7,23.8,07.1,0000.0,0005.75,0001.42,0000.62
2022-04-13 06:58:00,,0817.1,5.00,0.00,21.8,22.3,00.0,30.7,23.6,07.1,0000.0,0005.83,0001.41,0000.61
2022-04-13 06:59:00,,0817.1,4.99,0.00,21.8,22.0,00.0,30.7,23.6,07.2,0000.0,0006.35,0001.39,0000.61
